Weather History for Dinard, France

Change the Weather History Date:

Monday, December 2, 2013

  Actual Average Record
Temperature  
Mean Temperature 46 °F -  
Max Temperature 48 °F 46 °F - ()
Min Temperature 42 °F 38 °F - ()
Degree Days  
Heating Degree Days 19    
Moisture  
Dew Point 38 °F    
Average Humidity 73    
Maximum Humidity 81    
Minimum Humidity 66    
Precipitation  
Precipitation 0.00 in - - ()
Sea Level Pressure  
Sea Level Pressure 30.44 in    
Wind  
Wind Speed 8 mph ()    
Max Wind Speed 13 mph    
Max Gust Speed -    
Visibility 6.2 miles    
Events      
T = Trace of Precipitation, MM = Missing Value Source: Averaged Metar Reports

Daily Weather History Graph

Daily Weather History Graph

Search for Another Location

Airport:

Trip Planner

Search our weather history database for the weather conditions in past years. The results will help you decide how hot, cold, wet, or windy it might be!

Date:

Astronomy

Dec. 02, 2013 Rise Set
Actual Time 8:40 AM CET 5:14 PM CET
Civil Twilight 8:04 AM CET 5:50 PM CET
Nautical Twilight 7:24 AM CET 6:30 PM CET
Astronomical Twilight 6:47 AM CET 7:08 PM CET
Moon 7:45 AM CET (12/2) 5:07 PM CET (12/2)
Length of Visible Light 9h 46m
Length of Day
8h 34m
Waning Crescent, 0% of the Moon is Illuminated
Dec 2
Waning Crescent
Dec 3
New
Dec 9
First Quarter
Dec 17
Full
Dec 25
Last Quarter

Hourly Weather History & Observations

Time (CET) Temp. Windchill Dew Point Humidity Pressure Visibility Wind Dir Wind Speed Gust Speed Precip Events Conditions
12:00 AM 46.4 °F 41.9 °F 39.2 °F 76% 30.48 in 6.2 mi ENE 9.2 mph - N/A   Overcast
12:30 AM 46.4 °F 42.9 °F 39.2 °F 76% 30.48 in 6.2 mi NE 6.9 mph - N/A   Overcast
1:00 AM 46.4 °F 42.4 °F 39.2 °F 76% 30.48 in 6.2 mi ENE 8.1 mph - N/A   Overcast
1:30 AM 46.4 °F 42.9 °F 39.2 °F 76% 30.48 in 6.2 mi ENE 6.9 mph - N/A   Overcast
2:00 AM 46.4 °F 42.9 °F 39.2 °F 76% 30.48 in 6.2 mi ENE 6.9 mph - N/A   Overcast
2:30 AM 46.4 °F 41.9 °F 39.2 °F 76% 30.48 in 6.2 mi NE 9.2 mph - N/A   Overcast
3:00 AM 46.4 °F 41.9 °F 39.2 °F 76% 30.48 in 6.2 mi ENE 9.2 mph - N/A   Overcast
3:30 AM 44.6 °F 41.4 °F 39.2 °F 81% 30.48 in 6.2 mi ENE 5.8 mph - N/A   Overcast
4:00 AM 44.6 °F 42.2 °F 39.2 °F 81% 30.48 in 6.2 mi ENE 4.6 mph - N/A   Overcast
4:30 AM 46.4 °F 41.9 °F 39.2 °F 76% 30.48 in 6.2 mi ENE 9.2 mph - N/A   Overcast
5:00 AM 44.6 °F 38.8 °F 37.4 °F 76% 30.48 in 6.2 mi ENE 11.5 mph - N/A   Mostly Cloudy
5:30 AM 44.6 °F 39.2 °F 37.4 °F 76% 30.48 in 6.2 mi ENE 10.4 mph - N/A   Overcast
6:00 AM 44.6 °F 39.2 °F 37.4 °F 76% 30.48 in 6.2 mi ENE 10.4 mph - N/A   Overcast
6:30 AM 46.4 °F 40.7 °F 37.4 °F 71% 30.48 in 6.2 mi ENE 12.7 mph - N/A   Overcast
7:00 AM 46.4 °F 41.9 °F 37.4 °F 71% 30.48 in 6.2 mi ENE 9.2 mph - N/A   Overcast
7:30 AM 46.4 °F 42.9 °F 37.4 °F 71% 30.48 in 6.2 mi ENE 6.9 mph - N/A   Overcast
8:00 AM 46.4 °F 42.4 °F 37.4 °F 71% 30.48 in 6.2 mi ENE 8.1 mph - N/A   Overcast
8:30 AM 46.4 °F 42.4 °F 37.4 °F 71% 30.48 in 6.2 mi ENE 8.1 mph - N/A   Overcast
9:00 AM 46.4 °F 40.7 °F 37.4 °F 71% 30.48 in 6.2 mi ENE 12.7 mph - N/A   Overcast
9:30 AM 46.4 °F 42.4 °F 37.4 °F 71% 30.48 in 6.2 mi ENE 8.1 mph - N/A   Overcast
10:00 AM 46.4 °F 41.9 °F 37.4 °F 71% 30.48 in 6.2 mi ENE 9.2 mph - N/A   Overcast
10:30 AM 46.4 °F 42.4 °F 37.4 °F 71% 30.48 in 6.2 mi ENE 8.1 mph - N/A   Overcast
11:00 AM 48.2 °F - 37.4 °F 66% 30.48 in 6.2 mi ENE 11.5 mph - N/A   Overcast
11:30 AM 48.2 °F - 37.4 °F 66% 30.48 in 6.2 mi ENE 6.9 mph - N/A   Overcast
12:00 PM 48.2 °F - 37.4 °F 66% 30.45 in 6.2 mi ENE 8.1 mph - N/A   Overcast
12:30 PM 48.2 °F - 39.2 °F 71% 30.45 in 6.2 mi ENE 8.1 mph - N/A   Overcast
1:00 PM 48.2 °F - 37.4 °F 66% 30.42 in 6.2 mi East 11.5 mph - N/A   Overcast
1:30 PM 48.2 °F - 37.4 °F 66% 30.42 in 6.2 mi ENE 12.7 mph - N/A   Overcast
2:00 PM 48.2 °F - 37.4 °F 66% 30.39 in 6.2 mi ENE 11.5 mph - N/A   Overcast
2:30 PM 48.2 °F - 37.4 °F 66% 30.39 in 6.2 mi ENE 9.2 mph - N/A   Overcast
3:00 PM 48.2 °F - 37.4 °F 66% 30.39 in 6.2 mi ENE 10.4 mph - N/A   Overcast
3:30 PM 48.2 °F - 37.4 °F 66% 30.39 in 6.2 mi ENE 9.2 mph - N/A   Overcast
4:00 PM 46.4 °F 41.5 °F 37.4 °F 71% 30.39 in 6.2 mi ENE 10.4 mph - N/A   Overcast
4:30 PM 46.4 °F 42.4 °F 37.4 °F 71% 30.39 in 6.2 mi ENE 8.1 mph - N/A   Overcast
5:00 PM 46.4 °F 42.9 °F 37.4 °F 71% 30.39 in 6.2 mi ENE 6.9 mph - N/A   Overcast
5:30 PM 46.4 °F 41.9 °F 37.4 °F 71% 30.39 in 6.2 mi ENE 9.2 mph - N/A   Overcast
6:00 PM 46.4 °F 43.5 °F 37.4 °F 71% 30.39 in 6.2 mi NE 5.8 mph - N/A   Overcast
6:30 PM 46.4 °F 42.4 °F 37.4 °F 71% 30.39 in 6.2 mi NE 8.1 mph - N/A   Overcast
7:00 PM 46.4 °F 42.9 °F 37.4 °F 71% 30.39 in 6.2 mi ENE 6.9 mph - N/A   Overcast
7:30 PM 46.4 °F 42.9 °F 37.4 °F 71% 30.39 in 6.2 mi ENE 6.9 mph - N/A   Overcast
8:00 PM 46.4 °F 41.9 °F 37.4 °F 71% 30.39 in 6.2 mi ENE 9.2 mph - N/A   Overcast
8:30 PM 44.6 °F 40.7 °F 37.4 °F 76% 30.39 in 6.2 mi ENE 6.9 mph - N/A   Overcast
9:00 PM 44.6 °F 40.7 °F 37.4 °F 76% 30.39 in 6.2 mi ENE 6.9 mph - N/A   Overcast
9:30 PM 44.6 °F 41.4 °F 37.4 °F 76% 30.42 in 6.2 mi East 5.8 mph - N/A   Overcast
10:00 PM 44.6 °F 41.4 °F 39.2 °F 81% 30.42 in 6.2 mi East 5.8 mph - N/A   Overcast
10:30 PM 44.6 °F 41.4 °F 37.4 °F 76% 30.39 in 6.2 mi East 5.8 mph - N/A   Overcast
11:00 PM 44.6 °F 40.7 °F 37.4 °F 76% 30.39 in 6.2 mi ESE 6.9 mph - N/A   Overcast
11:30 PM 42.8 °F 40.1 °F 37.4 °F 81% 30.39 in 6.2 mi East 4.6 mph - N/A   Overcast